Tracking 35237 objects as of 6-Sep-2026
HD Live streaming from Space Station
objects crossing your sky now

STARLINK-2169

Track STARLINK-2169 now!
10-day predictions
STARLINK-2169 is classified as:


NORAD ID: 47752
Int'l Code: 2021-017AG
Launch date: March 4, 2021
Source: United States (US)
Launch site: AIR FORCE EASTERN TEST RANGE (AFETR)
Your satellite tracking list
Your tracking list is empty




NASA's NSSDC Master Catalog

Two Line Element Set (TLE):
1 47752U 21017AG  26249.59197963  .01727757  11878-4  71213-3 0  9990
2 47752  53.1355  33.9671 0014265 309.4535  50.5242 16.22246134306272
Source of the keplerian elements: AFSPC